Regional Weather Roundup
Issued by NWS Jackson, KY

Home | Current Version | Previous Version | Text Only | Print | Product List | Glossary On
Versions: 1 2 3 4 5 6 7 8 9 10 11 12 13 14 15 16 17 18 19 20 21 22 23 24 25 26 27 28
000
ASUS43 KJKL 262310
RWRJKL

EAST KENTUCKY HOURLY WEATHER ROUNDUP
NATIONAL WEATHER SERVICE JACKSON KY
700 PM EDT MON SEP 26 2016

NOTE: "FAIR" INDICATES FEW OR NO CLOUDS BELOW 12,000 FEET WITH
NO SIGNIFICANT WEATHER AND/OR OBSTRUCTIONS TO VISIBILITY.

* THESE REPORTS ARE NOT UNDER NWS QUALITY CONTROL AND MAY NOT
  REPORT WEATHER SUCH AS PRECIPITATION AND FOG.

KYZ079-080-083-085-087-088-110-112-115-119-120-270000
...EASTERN KENTUCKY...

CITY           SKY/WX    TMP DP  RH WIND       PRES   REMARKS
JACKSON        CLOUDY    68  61  78 VRB5      30.05R
LONDON         CLOUDY    70  60  70 NW9       30.05R
SOMERSET*      CLOUDY    64  59  82 N5        30.08R
MONTICELLO*    CLOUDY    66  62  87 N14G21    30.08R
WILLIAMSBURG*  CLOUDY    70  66  88 NW6       30.05R
MIDDLESBORO*   CLOUDY    76  66  72 N3        30.03R
HARLAN APT*    CLOUDY    73  63  68 SW3       30.04R
PIKE CO APT*     N/A     74  65  74 W6        30.02R
BIG SANDY APT* CLOUDY    71  63  75 NW7       30.02R
MOREHEAD APT*  CLOUDY    63  57  82 NW6       30.07S
ASHLAND*       CLOUDY    66  57  72 W7        30.01R
$$

KYZ035-036-041-042-044-050-067-078-099-270000
...CENTRAL KENTUCKY...

CITY           SKY/WX    TMP DP  RH WIND       PRES   REMARKS
MT STERLING*   CLOUDY    63  57  82 NW5       30.07S
FLEMING/MASON* MOCLDY    62  55  76 W5        30.06R
DANVILLE*      MOCLDY    63  55  77 CALM      30.08S
LEXINGTON      CLOUDY    65  52  62 W6        30.06S
FRANKFORT      CLOUDY    64  53  67 W3        30.05R
LOUISVILLE     CLOUDY    68  50  52 W7        30.05S
LEBANON*         N/A     64  55  72 CALM      30.07S
GLASGOW*       CLOUDY    64  59  85 CALM      30.07S
BOWLING GREEN  PTCLDY    68  57  68 NW3       30.07S
$$

KYZ091>093-OHZ055-061-077-WVZ005-015-034-035-042-270000
...SOUTHERN OHIO/WEST VIRGINIA...

CITY           SKY/WX    TMP DP  RH WIND       PRES   REMARKS
COVINGTON      MOCLDY    65  51  60 W5        30.03S
COLUMBUS       MOCLDY    64  49  57 W8        29.99R
DAYTON         CLOUDY    65  45  48 W9        30.01S
WILMINGTON     CLOUDY    63  51  65 W9        30.02R
HUNTINGTON     CLOUDY    68  59  73 W12G17    30.02R
CHARLESTON     CLOUDY    73  60  63 NW6       29.99R
PINEVILLE*     MOCLDY    69  66  88 MISG      30.08R FOG
BECKLEY        MOCLDY    67  64  90 SW3       30.06R
BLUEFIELD      CLOUDY    67  61  81 CALM      30.08S
LOGAN CO APT*    N/A     72  64  78 W6        30.00R
$$

VAZ002-007-008-TNZ017-027-036-066-071-270000
...SOUTHWEST VIRGINIA/EAST TENNESSEE...

CITY           SKY/WX    TMP DP  RH WIND       PRES   REMARKS
WISE*          CLOUDY    68  64  88 S3        30.10R
JONESVILLE*      N/A     75  66  73 CALM      30.06R
ABINGDON*      CLOUDY    69  67  90 SW8       30.09R
BRISTOL        CLOUDY    69  66  90 S5        30.05S
MORRISTOWN*    CLEAR     70  68  94 SW6       30.04R
SEVIERVILLE*   CLEAR     72  64  78 CALM      30.04R
KNOXVILLE      MOCLDY    71  67  87 SW9       30.03R
OAK RIDGE      MOCLDY    75  68  78 S6        30.03F
CROSSVILLE     CLOUDY    72  62  71 CALM      30.07R
NASHVILLE      CLOUDY    67  60  78 N5        30.07S
$$

...KEY TO REMARKS...
VSB - VISIBILITY IN MILES
WCI - WIND CHILL INDEX
HX  - HEAT INDEX

$$




USA.gov is the U.S. government's official web portal to all federal, state and local government web resources and services.